Location: Middlebury
(44.0153°N, 73.1678°W)
Time: 16:44:25
(UTC-04:00)

ISS - Visible Passes

Search period start: 25 March 2019 00:00
Search period end: 04 April 2019 00:00
Orbit: 408 x 411 km, 51.6° (Epoch: 26 March)

Date Brightness Start Highest point End Pass type
(mag) Time Alt. Az. Time Alt. Az. Time Alt. Az.
25 Mar -3.4 19:52:40 10° WSW 19:55:56 65° NNW 19:59:14 10° NE visible
25 Mar -1.6 21:30:15 10° WNW 21:32:45 23° NNW 21:32:45 23° NNW visible
26 Mar -1.9 20:39:13 10° WNW 20:42:07 27° NNW 20:44:18 14° NE visible
26 Mar -0.3 22:16:46 10° NW 22:17:04 12° NW 22:17:04 12° NW visible
27 Mar -2.4 19:48:12 10° W 19:51:17 35° NNW 19:54:23 10° NE visible
27 Mar -1.6 21:25:54 10° NW 21:28:30 21° N 21:28:30 21° N visible
28 Mar -1.7 20:34:57 10° WNW 20:37:37 22° N 20:39:54 12° NE visible
28 Mar -0.5 22:12:02 10° NW 22:12:39 14° NW 22:12:39 14° NW visible
29 Mar -1.8 19:43:54 10° WNW 19:46:42 25° NNW 19:49:31 10° NE visible
29 Mar -1.8 21:21:19 10° NW 21:23:59 23° N 21:23:59 23° N visible
30 Mar -1.7 20:30:28 10° NW 20:33:06 21° N 20:35:17 12° NE visible
30 Mar -0.8 22:07:08 10° NW 22:08:02 17° NW 22:08:02 17° NW visible
31 Mar -2.4 21:16:27 10° NW 21:19:19 30° NNE 21:19:19 30° NNE visible
01 Apr -2.1 20:25:43 10° NW 20:28:31 25° NNE 20:30:35 14° ENE visible
01 Apr -1.1 22:02:09 10° WNW 22:03:20 20° NW 22:03:20 20° NW visible
02 Apr -3.3 21:11:26 10° NW 21:14:37 50° NNE 21:14:37 50° NNE visible
03 Apr -2.7 20:20:43 10° NW 20:23:48 35° NNE 20:25:54 17° E visible
03 Apr -1.4 21:57:17 10° WNW 21:58:39 21° W 21:58:39 21° W visible
